Location: Gwatt
(46.7204°N, 7.6223°E)
Time: 00:08:13
(UTC+00:00)

Envisat - Pass Details

Date: 26 November 2020
Orbit: 764 x 766 km, 98.1° (Epoch: 19 January)

Event Time Altitude Azimuth Distance (km) Brightness Sun altitude
Rises 16:20:51 0° 163° (SSE) 3,220 6.3 -6.1°
Reaches altitude 10° 16:23:08 10° 162° (SSE) 2,298 5.6 -6.5°
Maximum altitude 16:28:13 85° 76° (ENE) 776 3.0 -7.3°
Drops below altitude 10° 16:33:20 10° 347° (NNW) 2,315 5.4 -8.1°
Sets 16:35:39 0° 347° (NNW) 3,246 6.2 -8.5°
